Thetys II — FGTO — position and weather

sailwx.info

Track history (hours):
 
Tides and Currents Weather Stations Pressure Air Temp Water Temp Dewpoint Dewpoint Depression Visibility Wind Speed Wind Dir Waves Ship Positions

Oceanographic research ship Thetys II (France)

Last reported at 2017-Jul-19 17:31 UTC. Time now 2017-Jul-20 18:38 UTC.
Position N 39°50' E 024°12'.

Length 25 m; beam 8 m.

Type: Ship. MMSI: 227212000.

Date/timePositionNaut miles runAvg speedWind from/ knotsBaromVisibWave heightAir tempDewpointWater temp
2017-Jul-19 17:31N 39°50' E 024°12'0 4.3
2017-Jul-19 17:30N 39°50' E 024°12'3 4.3
2017-Jul-19 16:54N 39°52' E 024°10'6 2.1
2017-Jul-19 14:13N 39°57' E 024°05'4 4.0
2017-Jul-19 13:07N 39°54' E 024°10'2 4.1
2017-Jul-19 12:39N 39°53' E 024°12'1 3.9
2017-Jul-19 12:29N 39°53' E 024°13'2 4.1
2017-Jul-19 11:59N 39°52' E 024°15'2 4.1
2017-Jul-19 11:24N 39°50' E 024°18'13 1.3
2017-Jul-19 01:07N 40°04' E 024°18'1 4.0
2017-Jul-19 00:55N 40°03' E 024°17'2 3.9
2017-Jul-19 00:28N 40°02' E 024°16'2 4.1
2017-Jul-18 23:59N 39°60' E 024°15'2 4.1
2017-Jul-18 23:30N 39°58' E 024°13'2 3.9
2017-Jul-18 23:00N 39°57' E 024°12'2 3.9
2017-Jul-18 22:25N 39°54' E 024°11'2 4.0
2017-Jul-18 22:00N 39°53' E 024°10'3 4.1
2017-Jul-18 21:22N 39°51' E 024°09'2 4.1
2017-Jul-18 20:58N 39°49' E 024°08'5 3.9
2017-Jul-18 19:35N 39°44' E 024°04'0 4.3
2017-Jul-18 19:29N 39°44' E 024°04'5 4.0
2017-Jul-18 18:19N 39°40' E 024°01'  
2017-Jul-13 21:57N 39°19' E 023°51'  
Track history (hours):
 
Tides and Currents Weather Stations Pressure Air Temp Water Temp Dewpoint Dewpoint Depression Visibility Wind Speed Wind Dir Waves Ship Positions

Oceanographic research ship Thetys II (France)

Last reported at 2017-Jul-19 17:31 UTC. Time now 2017-Jul-20 18:38 UTC.
Position N 39°50' E 024°12'.

Length 25 m; beam 8 m.

Type: Ship. MMSI: 227212000.

Date/timePositionNaut miles runAvg speedWind from/ knotsBaromVisibWave heightAir tempDewpointWater temp
2017-Jul-19 17:31N 39°50' E 024°12'0 4.3
2017-Jul-19 17:30N 39°50' E 024°12'3 4.3
2017-Jul-19 16:54N 39°52' E 024°10'6 2.1
2017-Jul-19 14:13N 39°57' E 024°05'4 4.0
2017-Jul-19 13:07N 39°54' E 024°10'2 4.1
2017-Jul-19 12:39N 39°53' E 024°12'1 3.9
2017-Jul-19 12:29N 39°53' E 024°13'2 4.1
2017-Jul-19 11:59N 39°52' E 024°15'2 4.1
2017-Jul-19 11:24N 39°50' E 024°18'13 1.3
2017-Jul-19 01:07N 40°04' E 024°18'1 4.0
2017-Jul-19 00:55N 40°03' E 024°17'2 3.9
2017-Jul-19 00:28N 40°02' E 024°16'2 4.1
2017-Jul-18 23:59N 39°60' E 024°15'2 4.1
2017-Jul-18 23:30N 39°58' E 024°13'2 3.9
2017-Jul-18 23:00N 39°57' E 024°12'2 3.9
2017-Jul-18 22:25N 39°54' E 024°11'2 4.0
2017-Jul-18 22:00N 39°53' E 024°10'3 4.1
2017-Jul-18 21:22N 39°51' E 024°09'2 4.1
2017-Jul-18 20:58N 39°49' E 024°08'5 3.9
2017-Jul-18 19:35N 39°44' E 024°04'0 4.3
2017-Jul-18 19:29N 39°44' E 024°04'5 4.0
2017-Jul-18 18:19N 39°40' E 024°01'  
2017-Jul-13 21:57N 39°19' E 023°51'  

Dump ship's entire track history